Location: Ergnies
(50.0854°N, 2.0375°E)
Time: 06:27:09
(UTC+00:00)

Gbstr 26 Del rocket - Pass Details

Date: 14 January 2026
Orbit: 490 x 1217 km, 51.8° (Epoch: 10 February)

Event Time Altitude Azimuth Distance (km) Brightness Sun altitude
Rises 07:01:54 0° 247° (WSW) 4,011 6.8 -7.0°
Reaches altitude 10° 07:04:50 10° 247° (WSW) 2,978 6.2 -6.5°
Maximum altitude 07:12:03 84° 161° (SSE) 994 4.2 -5.5°
Drops below altitude 10° 07:18:01 10° 73° (ENE) 2,486 6.9 -4.6°
Sets 07:20:17 0° 73° (ENE) 3,315 7.5 -4.3°
